カタログに戻る

STARLING 3

運用中通信PO
NORAD 57389·PAYLOAD·🇺🇸 United States

打ち上げ Jul 18, 2023 から Rocket Lab Launch Complex 1

Loading…

次のパス (今後24時間)

TLE

最新Source: Space-Track

元期: Sep 14, 2026, 13:56 UTC

1 57389U 23100D   26257.58082358  .00004441  00000-0  25495-3 0  9990
2 57389  99.4998 300.1941 0005458 169.5779 190.5560 15.13266661173583

AllMySatでSTARLING 3をリアルタイム追跡

Download on the App Store